Home   Weather   Springfield   Past weeks

Flag for USA Past Weather in Springfield, Massachusetts, USA — Yesterday and Last 2 Weeks

Now
34 °F

Overcast.


Feels Like: 34 °F
Forecast: 26 / 42 °F
Wind: No wind

Location: Barnes Municipal Airport

Current Time: Dec 5, 2016 at 9:58:31 pm

Latest Report: Dec 5, 2016 at 8:53 pm


Visibility: 10 mi

Pressure: 30.04 "Hg

Humidity: 97%

Dew Point: 33 °F

Location of SpringfieldLocation

Past Weather in Springfield — Graph

°F

Springfield Temperature Yesterday

Maximum temperature yesterday: 41 °F (at 12:53 pm)
Minimum temperature yesterday: 25 °F (at 7:53 am)
Average temperature yesterday: 31 °F

High & Low Weather Summary for the Past Weeks

 TemperatureHumidityPressure
High55 °F (Dec 1, 11:53 am)100% (Nov 25, 9:53 am)30.37 "Hg (Nov 25, 9:53 am)
Low22 °F (Nov 28, 3:53 am)43% (Dec 4, 1:53 pm)29.40 "Hg (Nov 20, 9:53 pm)
Average36 °F79%30.00 "Hg
* Reported Nov 20 7:53 pm — Dec 5 7:53 pm, Springfield, Weather by CustomWeather, © 2016

Note: Actual official high and low records may vary slightly from our data, if they occured in-between our weather recording intervals... More about our weather records

Advertising

Springfield Weather History for the Previous 24 Hours

Scroll right to see more
 ConditionsComfort  
Time TempWeatherWind HumidityBarometerVisibility
7:53 pm
Mon, Dec 5
34 °FPartly cloudy.3 mph100%30.01 "Hg10 mi
6:53 pm34 °FOvercast.No wind100%30.00 "Hg10 mi
5:53 pm37 °FMostly cloudy.5 mph89%30.00 "Hg10 mi
4:53 pm34 °FMostly cloudy.3 mph100%29.98 "Hg10 mi
3:53 pm36 °FOvercast.3 mph92%29.97 "Hg10 mi
2:53 pm35 °FLight rain. Partly sunny.No wind92%29.95 "Hg9 mi
1:53 pm35 °FPartly sunny.No wind88%29.93 "Hg10 mi
12:53 pm32 °FMore clouds than sun.No wind96%29.94 "Hg10 mi
11:53 am31 °FLow clouds.3 mph92%29.95 "Hg8 mi
10:53 am30 °FLow clouds.No wind92%29.98 "Hg9 mi
9:53 am29 °FLight snow. Ice fog.No wind93%30.01 "Hg2 mi
9:03 am29 °FLight snow. Ice fog.No wind96%30.01 "Hg2 mi
8:53 am28 °FLight snow. Ice fog.No wind100%30.03 "Hg2 mi
7:53 am28 °FLight snow. Ice fog.3 mph100%30.03 "Hg2 mi
7:01 am28 °FLight snow. Ice fog.6 mph96%30.03 "Hg2 mi
5:53 am28 °FMostly cloudy.6 mph96%30.06 "Hg10 mi
4:53 am30 °FOvercast.3 mph79%30.08 "Hg9 mi
3:53 am29 °FMostly cloudy.No wind82%30.12 "Hg10 mi
2:53 am29 °FOvercast.5 mph82%30.14 "Hg10 mi
1:53 am28 °FClear.3 mph89%30.12 "Hg10 mi
12:53 am27 °FClear.No wind89%30.15 "Hg10 mi
11:53 pm
Sun, Dec 4
27 °FClear.No wind85%30.17 "Hg10 mi
10:53 pm25 °FClear.3 mph92%30.19 "Hg10 mi
9:53 pm26 °FClear.No wind84%30.19 "Hg10 mi
Weather by CustomWeather, © 2016

See weather overviewHow to use our weather pages